Location: Kielce
(50.8833°N, 20.6167°E)
Time: 21:34:11
(UTC+02:00)

SR - Pass Details

Date: 24 April 2021
Orbit: 573 x 882 km, 66.7° (Epoch: 09 May)

Event Time Altitude Azimuth Distance (km) Brightness Sun altitude
Rises 05:18:55 0° 147° (SSE) 3,341 ? -1.7°
Reaches altitude 10° 05:23:50 10° 109° (ESE) 2,483 ? -0.9°
Maximum altitude 05:24:48 10° 99° (E) 2,464 ? -0.8°
Drops below altitude 10° 05:25:47 10° 89° (E) 2,506 ? -0.6°
Sets 05:30:52 0° 52° (NE) 3,485 ? 0.1°
